Wetterdaten: aktuell Dienstag, 16.08.2022 06:30
Datum Zeit Temp. A. Feuchte A. Luftdruck Regen Wind Richtung Richtung Sonnenschein Solar Windböen
16.08.2022 06:30 16,8 °C 93 % 1005,8 hPa 0,0 l/m² 0,5 km/h (0 Bft) S-SW 210 ° 0 min 14 W/m² 3,2 km/h (1 Bft)
16.08.2022 06:25 16,8 °C 93 % 1005,8 hPa 0,0 l/m² 1,6 km/h (1 Bft) S-SW 210 ° 0 min 11 W/m² 4,8 km/h (1 Bft)
16.08.2022 06:20 16,8 °C 93 % 1005,8 hPa 0,0 l/m² 2,1 km/h (1 Bft) S-SW 196 ° 0 min 9 W/m² 4,8 km/h (1 Bft)
16.08.2022 06:15 16,8 °C 93 % 1005,8 hPa 0,0 l/m² 1,6 km/h (1 Bft) S-SW 195 ° 0 min 7 W/m² 4,8 km/h (1 Bft)
16.08.2022 06:10 16,8 °C 93 % 1005,8 hPa 0,0 l/m² 0,4 km/h (0 Bft) S-SW 205 ° 0 min 0 W/m² 1,6 km/h (1 Bft)
16.08.2022 06:05 16,8 °C 93 % 1005,7 hPa 0,0 l/m² 0,5 km/h (0 Bft) S-SW 205 ° 0 min 0 W/m² 3,2 km/h (1 Bft)
16.08.2022 06:00 16,8 °C 93 % 1005,7 hPa 0,0 l/m² 0,0 km/h (0 Bft) S-SW 205 ° 0 min 0 W/m² 1,6 km/h (1 Bft)
16.08.2022 05:55 16,8 °C 93 % 1005,7 hPa 0,0 l/m² 0,4 km/h (0 Bft) S-SW 205 ° 0 min 0 W/m² 1,6 km/h (1 Bft)
16.08.2022 05:50 16,8 °C 93 % 1005,8 hPa 0,0 l/m² 2,2 km/h (1 Bft) S-SW 205 ° 0 min 0 W/m² 4,8 km/h (1 Bft)
16.08.2022 05:45 16,8 °C 93 % 1005,7 hPa 0,0 l/m² 1,9 km/h (1 Bft) S-SW 193 ° 0 min 0 W/m² 3,2 km/h (1 Bft)
16.08.2022 05:40 16,8 °C 93 % 1005,7 hPa 0,0 l/m² 2,0 km/h (1 Bft) S-SW 193 ° 0 min 0 W/m² 6,4 km/h (2 Bft)
16.08.2022 05:35 16,8 °C 93 % 1005,8 hPa 0,0 l/m² 2,6 km/h (1 Bft) S 187 ° 0 min 0 W/m² 6,4 km/h (2 Bft)
16.08.2022 05:30 16,9 °C 93 % 1005,8 hPa 0,0 l/m² 1,6 km/h (1 Bft) S 169 ° 0 min 0 W/m² 4,8 km/h (1 Bft)
16.08.2022 05:25 16,8 °C 93 % 1005,7 hPa 0,0 l/m² 1,1 km/h (1 Bft) SO 146 ° 0 min 0 W/m² 3,2 km/h (1 Bft)
16.08.2022 05:20 16,8 °C 93 % 1005,6 hPa 0,0 l/m² 1,3 km/h (1 Bft) S 188 ° 0 min 0 W/m² 3,2 km/h (1 Bft)
16.08.2022 05:15 16,7 °C 92 % 1005,6 hPa 0,0 l/m² 1,3 km/h (1 Bft) S-SW 202 ° 0 min 0 W/m² 3,2 km/h (1 Bft)
16.08.2022 05:10 16,7 °C 92 % 1005,7 hPa 0,0 l/m² 0,5 km/h (0 Bft) S 180 ° 0 min 0 W/m² 1,6 km/h (1 Bft)
16.08.2022 05:05 16,7 °C 92 % 1005,7 hPa 0,0 l/m² 0,6 km/h (0 Bft) S 180 ° 0 min 0 W/m² 3,2 km/h (1 Bft)
16.08.2022 05:00 16,7 °C 92 % 1005,6 hPa 0,0 l/m² 1,3 km/h (1 Bft) S 180 ° 0 min 0 W/m² 3,2 km/h (1 Bft)
16.08.2022 04:55 16,7 °C 92 % 1005,7 hPa 0,0 l/m² 2,3 km/h (1 Bft) S 185 ° 0 min 0 W/m² 6,4 km/h (2 Bft)
16.08.2022 04:50 16,7 °C 92 % 1005,7 hPa 0,0 l/m² 3,0 km/h (1 Bft) S-SO 163 ° 0 min 0 W/m² 6,4 km/h (2 Bft)
16.08.2022 04:45 16,8 °C 92 % 1005,6 hPa 0,0 l/m² 2,2 km/h (1 Bft) S 180 ° 0 min 0 W/m² 4,8 km/h (1 Bft)
16.08.2022 04:40 16,8 °C 92 % 1005,7 hPa 0,0 l/m² 1,3 km/h (1 Bft) S 180 ° 0 min 0 W/m² 3,2 km/h (1 Bft)
16.08.2022 04:35 16,8 °C 92 % 1005,7 hPa 0,0 l/m² 1,3 km/h (1 Bft) S 180 ° 0 min 0 W/m² 3,2 km/h (1 Bft)
16.08.2022 04:30 16,8 °C 92 % 1005,7 hPa 0,0 l/m² 2,5 km/h (1 Bft) S 180 ° 0 min 0 W/m² 4,8 km/h (1 Bft)
16.08.2022 04:25 16,8 °C 92 % 1005,6 hPa 0,0 l/m² 1,8 km/h (1 Bft) S 180 ° 0 min 0 W/m² 4,8 km/h (1 Bft)
16.08.2022 04:20 16,9 °C 92 % 1005,6 hPa 0,0 l/m² 0,8 km/h (0 Bft) S-SW 211 ° 0 min 0 W/m² 1,6 km/h (1 Bft)
16.08.2022 04:15 16,9 °C 92 % 1005,6 hPa 0,0 l/m² 0,2 km/h (0 Bft) S-SW 211 ° 0 min 0 W/m² 1,6 km/h (1 Bft)
16.08.2022 04:10 17,0 °C 92 % 1005,6 hPa 0,0 l/m² 0,7 km/h (0 Bft) S-SW 211 ° 0 min 0 W/m² 1,6 km/h (1 Bft)
16.08.2022 04:05 17,1 °C 92 % 1005,6 hPa 0,0 l/m² 1,1 km/h (1 Bft) S-SW 211 ° 0 min 0 W/m² 3,2 km/h (1 Bft)
16.08.2022 04:00 17,0 °C 91 % 1005,5 hPa 0,0 l/m² 1,0 km/h (0 Bft) S-SW 211 ° 0 min 0 W/m² 3,2 km/h (1 Bft)
16.08.2022 03:55 17,1 °C 91 % 1005,6 hPa 0,0 l/m² 1,8 km/h (1 Bft) S-SW 211 ° 0 min 0 W/m² 3,2 km/h (1 Bft)
16.08.2022 03:50 17,1 °C 91 % 1005,5 hPa 0,0 l/m² 0,1 km/h (0 Bft) S 190 ° 0 min 0 W/m² 1,6 km/h (1 Bft)
16.08.2022 03:45 17,2 °C 91 % 1005,5 hPa 0,0 l/m² 0,0 km/h (0 Bft) S 190 ° 0 min 0 W/m² 1,6 km/h (1 Bft)
16.08.2022 03:40 17,3 °C 91 % 1005,5 hPa 0,0 l/m² 0,0 km/h (0 Bft) S 190 ° 0 min 0 W/m² 0,0 km/h (0 Bft)
16.08.2022 03:35 17,4 °C 91 % 1005,5 hPa 0,0 l/m² 0,0 km/h (0 Bft) S 190 ° 0 min 0 W/m² 0,0 km/h (0 Bft)
16.08.2022 03:30 17,5 °C 91 % 1005,6 hPa 0,0 l/m² 0,1 km/h (0 Bft) S 190 ° 0 min 0 W/m² 1,6 km/h (1 Bft)
16.08.2022 03:25 17,6 °C 91 % 1005,6 hPa 0,0 l/m² 0,7 km/h (0 Bft) S 190 ° 0 min 0 W/m² 1,6 km/h (1 Bft)
16.08.2022 03:20 17,7 °C 91 % 1005,5 hPa 0,0 l/m² 0,1 km/h (0 Bft) S 190 ° 0 min 0 W/m² 1,6 km/h (1 Bft)
16.08.2022 03:15 17,8 °C 91 % 1005,5 hPa 0,0 l/m² 0,0 km/h (0 Bft) S 190 ° 0 min 0 W/m² 1,6 km/h (1 Bft)
16.08.2022 03:10 17,8 °C 92 % 1005,5 hPa 0,0 l/m² 0,0 km/h (0 Bft) S 190 ° 0 min 0 W/m² 0,0 km/h (0 Bft)
16.08.2022 03:05 17,9 °C 92 % 1005,4 hPa 0,0 l/m² 0,0 km/h (0 Bft) S 190 ° 0 min 0 W/m² 1,6 km/h (1 Bft)
16.08.2022 03:00 18,1 °C 92 % 1005,4 hPa 0,0 l/m² 0,0 km/h (0 Bft) S 190 ° 0 min 0 W/m² 1,6 km/h (1 Bft)
16.08.2022 02:55 18,2 °C 92 % 1005,3 hPa 0,0 l/m² 0,2 km/h (0 Bft) S 190 ° 0 min 0 W/m² 1,6 km/h (1 Bft)
16.08.2022 02:50 18,2 °C 92 % 1005,3 hPa 0,0 l/m² 0,3 km/h (0 Bft) S 190 ° 0 min 0 W/m² 1,6 km/h (1 Bft)
16.08.2022 02:45 18,2 °C 92 % 1005,2 hPa 0,0 l/m² 1,3 km/h (1 Bft) S 190 ° 0 min 0 W/m² 4,8 km/h (1 Bft)
16.08.2022 02:40 18,2 °C 92 % 1005,1 hPa 0,0 l/m² 1,4 km/h (1 Bft) S 186 ° 0 min 0 W/m² 3,2 km/h (1 Bft)
16.08.2022 02:35 18,3 °C 92 % 1005,1 hPa 0,0 l/m² 3,3 km/h (1 Bft) S-SO 164 ° 0 min 0 W/m² 8,0 km/h (2 Bft)
16.08.2022 02:30 18,3 °C 92 % 1005,0 hPa 0,0 l/m² 2,8 km/h (1 Bft) S 184 ° 0 min 0 W/m² 6,4 km/h (2 Bft)
16.08.2022 02:25 18,4 °C 92 % 1005,0 hPa 0,0 l/m² 3,1 km/h (1 Bft) S 180 ° 0 min 0 W/m² 6,4 km/h (2 Bft)
16.08.2022 02:20 18,4 °C 91 % 1005,0 hPa 0,0 l/m² 3,5 km/h (1 Bft) S-SW 212 ° 0 min 0 W/m² 6,4 km/h (2 Bft)
16.08.2022 02:15 18,6 °C 91 % 1005,0 hPa 0,0 l/m² 2,6 km/h (1 Bft) S-SW 195 ° 0 min 0 W/m² 8,0 km/h (2 Bft)
16.08.2022 02:10 18,7 °C 91 % 1005,1 hPa 0,0 l/m² 2,3 km/h (1 Bft) S 169 ° 0 min 0 W/m² 6,4 km/h (2 Bft)
16.08.2022 02:05 18,7 °C 92 % 1005,1 hPa 0,0 l/m² 2,2 km/h (1 Bft) S 188 ° 0 min 0 W/m² 4,8 km/h (1 Bft)
16.08.2022 02:00 18,8 °C 92 % 1005,1 hPa 0,0 l/m² 1,9 km/h (1 Bft) S-SO 151 ° 0 min 0 W/m² 4,8 km/h (1 Bft)
16.08.2022 01:55 18,8 °C 92 % 1005,1 hPa 0,0 l/m² 1,1 km/h (1 Bft) S 174 ° 0 min 0 W/m² 3,2 km/h (1 Bft)
16.08.2022 01:50 18,9 °C 92 % 1005,1 hPa 0,0 l/m² 1,6 km/h (1 Bft) S 174 ° 0 min 0 W/m² 4,8 km/h (1 Bft)
16.08.2022 01:45 19,0 °C 92 % 1005,1 hPa 0,0 l/m² 1,9 km/h (1 Bft) S-SO 163 ° 0 min 0 W/m² 3,2 km/h (1 Bft)
16.08.2022 01:40 19,0 °C 92 % 1005,1 hPa 0,0 l/m² 1,1 km/h (1 Bft) S 191 ° 0 min 0 W/m² 3,2 km/h (1 Bft)
16.08.2022 01:35 19,1 °C 92 % 1005,1 hPa 0,0 l/m² 1,8 km/h (1 Bft) S 191 ° 0 min 0 W/m² 4,8 km/h (1 Bft)
16.08.2022 01:30 19,2 °C 92 % 1005,2 hPa 0,0 l/m² 1,5 km/h (1 Bft) S 186 ° 0 min 0 W/m² 3,2 km/h (1 Bft)
_ Min-Zeit 07:00 12:40 15:00 - 07:05 - - - - 19:30
Minimum _ 15,8 °C 39 % 1001,7 hPa - 0,0 km/h (0 Bft) - - - - 0,0 km/h (0 Bft)
_ Max-Zeit 12:40 05:20 05:30 15:55 15:30 - - 07:40 12:25 15:25
Maximum _ 31,6 °C 93 % 1005,8 hPa 0,8 l/m² 8,4 km/h
N (2 Bft)
- - 5 min 803 W/m² 25,7 km/h
S-SW (4 Bft)
Durchschnitt _ 21,7 °C 79 % 1004,0 hPa #6,0 l/m² 1,8 km/h (1 Bft) S - #0 min. 10 W/m² 4,5 km/h (1 Bft)